Flag for Germany Weather past 2 weeks in Nienburg (Weser), Lower Saxony, Germany

Now
52 °F

Broken clouds.


Feels Like: 49 °F
Forecast: 50 / 65 °F
Wind: 8 mph from Southwest

Location: Wunstorf Airport

Current Time: Aug 22, 2014 at 8:37:51 AM

Latest Report: Aug 22, 2014 at 7:20 AM


Visibility: N/A

Pressure: 29.89 "Hg

Humidity: 88%

Dew point: 48 °F

Location of Nienburg (Weser)Location

Historic Weather in Nienburg (Weser) — Graph

°F

Nienburg (Weser) temperature yesterday

Maximum temperature yesterday: 64 °F (at 3:20 PM)
Minimum temperature yesterday: 50 °F (at 5:20 AM)
Average temperature yesterday: 57 °F

Past Weeks' High & Low Weather Summary

 TemperatureHumidityPressure
High79 °F (Aug 8, 4:20 PM)100% (Aug 7, 7:20 AM)30.01 "Hg (Aug 7, 7:20 AM)
Low48 °F (Aug 20, 5:20 AM)38% (Aug 11, 5:20 PM)29.59 "Hg (Aug 10, 7:20 PM)
Average61 °F75%29.83 "Hg
* Reported Aug 7 7:20 AM — Aug 22 7:20 AM, Nienburg (Weser), Weather by CustomWeather, © 2014

Note: Actual official high and low records may vary slightly from our data, if they occured in-between our weather recording intervals... More about our weather records

Advertising

Nienburg (Weser) weather history for previous 24 hours

 ConditionsComfort  
Time TempWeatherWind HumidityBarometerVisibility
7:20 AM
Aug 22
52 °FBroken clouds.8 mph88%29.89 "HgN/A
6:20 AM50 °FPartly cloudy.8 mph88%29.89 "HgN/A
5:20 AM50 °FPassing clouds.7 mph88%29.89 "HgN/A
4:20 AM52 °FCool.7 mph82%29.92 "Hg5 mi
3:20 AM55 °FCool.8 mph72%29.92 "Hg5 mi
2:20 AM54 °FCool.6 mph82%29.92 "Hg4 mi
1:20 AM50 °FCool.6 mph88%29.95 "Hg4 mi
12:20 AM52 °FCool.7 mph82%29.95 "Hg5 mi
11:20 PM
Aug 21
54 °FCool.6 mph77%29.95 "Hg5 mi
10:20 PM57 °FCool.7 mph67%29.95 "Hg4 mi
9:20 PM55 °FCool.6 mph72%29.95 "Hg5 mi
8:20 PM59 °FCool.5 mph63%29.95 "Hg6 mi
7:20 PM63 °FPartly sunny.7 mph56%29.95 "HgN/A
6:20 PM64 °FScattered clouds.10 mph46%29.95 "HgN/A
5:20 PM64 °FScattered clouds.12 mph43%29.98 "HgN/A
4:20 PM64 °FPartly sunny.12 mph46%29.98 "HgN/A
3:20 PM64 °FPartly sunny.12 mph49%29.98 "HgN/A
2:20 PM63 °FScattered clouds.10 mph52%30.01 "HgN/A
1:20 PM63 °FPassing clouds.10 mph56%30.01 "HgN/A
12:20 PM61 °FPassing clouds.10 mph59%30.01 "HgN/A
11:20 AM59 °FPassing clouds.10 mph63%30.01 "HgN/A
10:20 AM57 °FScattered clouds.8 mph72%30.01 "HgN/A
9:20 AM54 °FScattered clouds.8 mph82%30.01 "Hg5 mi
8:20 AM52 °FScattered clouds.6 mph88%30.01 "Hg4 mi
Weather by CustomWeather, © 2014

See weather overviewHow to use our weather pages